TimeAKDT,TemperatureF,Dew PointF,Humidity,Sea Level PressureIn,VisibilityMPH,Wind Direction,Wind SpeedMPH,Gust SpeedMPH,PrecipitationIn,Events,Conditions,WindDirDegrees,DateUTC
12:53 AM,39.9,30.9,70,29.67,10.0,Calm,Calm,-,N/A,,Overcast,0,2013-05-02 08:53:00
1:53 AM,39.9,30.0,68,29.69,10.0,Calm,Calm,-,N/A,,Overcast,0,2013-05-02 09:53:00
2:53 AM,39.0,30.9,73,29.70,10.0,Calm,Calm,-,0.00,Rain,Light Rain,0,2013-05-02 10:53:00
3:10 AM,37.4,32.0,81,29.70,10.0,Calm,Calm,-,0.00,Rain,Light Rain,0,2013-05-02 11:10:00
3:50 AM,37.4,32.0,81,29.71,10.0,Calm,Calm,-,0.01,Rain,Light Rain,0,2013-05-02 11:50:00
3:53 AM,37.9,32.0,79,29.71,10.0,Calm,Calm,-,0.01,Rain,Light Rain,0,2013-05-02 11:53:00
4:53 AM,37.0,33.1,86,29.72,10.0,Calm,Calm,-,0.02,,Overcast,0,2013-05-02 12:53:00
5:50 AM,35.6,33.8,93,29.71,10.0,Calm,Calm,-,0.02,,Overcast,0,2013-05-02 13:50:00
5:53 AM,36.0,33.1,89,29.71,10.0,Calm,Calm,-,0.02,,Overcast,0,2013-05-02 13:53:00
6:53 AM,36.0,33.1,89,29.72,10.0,Calm,Calm,-,0.00,,Overcast,0,2013-05-02 14:53:00
7:41 AM,37.4,33.8,87,29.73,7.0,Calm,Calm,-,0.00,,Overcast,0,2013-05-02 15:41:00
7:53 AM,37.9,34.0,86,29.73,10.0,Calm,Calm,-,0.00,,Overcast,0,2013-05-02 15:53:00
8:53 AM,39.0,34.0,82,29.75,10.0,East,4.6,-,N/A,,Overcast,90,2013-05-02 16:53:00
9:53 AM,39.9,35.1,83,29.77,10.0,Calm,Calm,-,N/A,,Overcast,0,2013-05-02 17:53:00
10:53 AM,39.9,35.1,83,29.79,10.0,Calm,Calm,-,N/A,,Overcast,0,2013-05-02 18:53:00
11:53 AM,42.1,36.0,79,29.80,10.0,Calm,Calm,-,0.00,,Overcast,0,2013-05-02 19:53:00
12:53 PM,42.1,37.0,82,29.82,10.0,SSW,3.5,-,N/A,,Overcast,200,2013-05-02 20:53:00
1:53 PM,43.0,36.0,76,29.84,10.0,SW,3.5,-,N/A,,Overcast,230,2013-05-02 21:53:00
2:53 PM,44.1,36.0,73,29.85,10.0,WSW,6.9,-,0.00,,Overcast,250,2013-05-02 22:53:00
3:53 PM,44.1,37.0,76,29.86,10.0,WSW,5.8,-,N/A,,Overcast,250,2013-05-02 23:53:00
4:53 PM,43.0,36.0,76,29.85,10.0,WNW,4.6,-,0.00,Rain,Light Rain,290,2013-05-03 00:53:00
5:53 PM,43.0,36.0,76,29.84,10.0,Calm,Calm,-,0.01,Rain,Light Rain,0,2013-05-03 01:53:00
6:53 PM,43.0,36.0,76,29.84,10.0,Calm,Calm,-,0.03,Rain,Light Rain,0,2013-05-03 02:53:00
7:53 PM,43.0,37.9,82,29.81,10.0,Calm,Calm,-,0.03,,Overcast,0,2013-05-03 03:53:00
8:53 PM,42.1,37.9,85,29.80,10.0,Calm,Calm,-,N/A,,Overcast,0,2013-05-03 04:53:00
9:53 PM,43.0,36.0,76,29.79,10.0,Calm,Calm,-,N/A,,Overcast,0,2013-05-03 05:53:00
10:53 PM,43.0,35.1,74,29.80,10.0,WNW,3.5,-,0.00,Rain,Light Rain,300,2013-05-03 06:53:00
11:53 PM,42.1,36.0,79,29.79,10.0,North,-9999.0,-,0.01,,Overcast,0,2013-05-03 07:53:00